EW5037 Weather Reports


time (UTC)temp
C
wind
direction
speed
KPH
gust
KPH
rain 1hr
cm
rain 24hr
cm
rain mn
cm
humidity
%
barometer
mb
20260510175808 25 113 11.3 19.3 0.00 0.00 0.00 78 1016.9
20260510174236 25 68 9.7 9.7 0.00 0.00 0.00 79 1016.9
20260510172104 25 45 6.4 9.7 0.00 0.00 0.00 80 1017.7
20260510171026 25 45 8.0 12.9 0.00 0.00 0.00 80 1017.7
20260510165934 25 45 8.0 11.3 0.00 0.00 0.00 80 1017.7
20260510164852 25 23 8.0 16.1 0.00 0.00 0.00 80 1017.7
20260510163801 25 45 9.7 17.7 0.00 0.00 0.00 81 1017.1
20260510162717 25 23 9.7 16.1 0.00 0.00 0.00 82 1017.1
20260510161631 24 23 8.0 14.5 0.00 0.00 0.00 83 1017.3
20260510160544 24 68 8.0 14.5 0.00 0.00 0.00 83 1017.3
20260510155934 23 158 6.4 9.7 0.00 0.00 0.00 84 1017.8
20260510154414 23 113 8.0 12.9 0.00 0.00 0.00 84 1017.8
20260510153326 23 68 8.0 14.5 0.00 0.00 0.00 85 1017.6
20260510152240 23 45 9.7 14.5 0.00 0.00 0.00 85 1017.6
20260510151151 23 23 9.7 12.9 0.00 0.00 0.00 85 1017.6
20260510150106 23 45 8.0 12.9 0.00 0.00 0.00 85 1017.5
20260510145030 23 23 8.0 11.3 0.00 0.00 0.00 85 1017.5
20260510142848 23 68 8.0 14.5 0.00 0.00 0.00 86 1017.5
20260510141800 22 23 9.7 16.1 0.00 0.00 0.00 87 1017.0
20260510141220 22 68 8.0 17.7 0.00 0.00 0.00 87 1017.0
20260510135628 22 23 8.0 17.7 0.00 0.00 0.00 87 1016.9
20260510134543 22 45 9.7 12.9 0.00 0.00 0.00 87 1016.9
20260510133502 22 45 9.7 12.9 0.00 0.00 0.00 87 1016.9
20260510132413 21 45 6.4 8.0 0.00 0.00 0.00 87 1016.9
20260510131328 21 68 6.4 11.3 0.00 0.00 0.00 87 1016.6
20260510130239 21 68 9.7 17.7 0.00 0.00 0.00 87 1016.6
20260510125153 21 45 6.4 9.7 0.00 0.00 0.00 87 1016.3
20260510124105 21 68 6.4 9.7 0.00 0.00 0.00 87 1015.7
20260510123031 20 23 6.4 9.7 0.00 0.00 0.00 87 1015.7
20260510121933 20 68 6.4 8.0 0.00 0.00 0.00 87 1015.5
20260510120850 20 68 4.8 6.4 0.00 0.00 0.00 87 1015.5
20260510115803 20 45 4.8 8.0 0.00 0.00 0.00 87 1015.2
20260510114720 20 90 3.2 6.4 0.00 0.00 0.00 86 1015.2
20260510113632 20 45 3.2 6.4 0.00 0.00 0.00 86 1014.7
20260510113032 20 68 3.2 6.4 0.00 0.00 0.00 86 1014.7
20260510111501 20 68 3.2 6.4 0.00 0.00 0.00 86 1014.6
20260510110417 20 0 3.2 3.2 0.00 0.00 0.00 86 1014.6
20260510105326 20 45 3.2 4.8 0.00 0.00 0.00 86 1014.2
20260510104242 20 68 3.2 6.4 0.00 0.00 0.00 86 1014.2
20260510103154 20 23 4.8 6.4 0.00 0.00 0.00 86 1014.3
20260510102549 20 45 3.2 4.8 0.00 0.00 0.00 86 1013.7
20260510101021 20 23 1.6 4.8 0.00 0.00 0.00 86 1013.7
20260510095936 20 0 1.6 3.2 0.00 0.00 0.00 86 1014.2
20260510095330 20 23 1.6 4.8 0.00 0.00 0.00 86 1014.2
20260510093805 20 68 3.2 4.8 0.00 0.00 0.00 86 1014.0
20260510092720 20 315 4.8 6.4 0.00 0.00 0.00 86 1014.0
20260510091636 20 338 3.2 8.0 0.00 0.00 0.00 86 1013.9
20260510090547 20 338 0.0 0.0 0.00 0.00 0.00 86 1013.9
20260510085939 20 23 0.0 3.2 0.00 0.00 0.00 86 1013.6
20260510084418 20 45 3.2 4.8 0.00 0.00 0.00 86 1013.6
20260510083329 20 23 3.2 6.4 0.00 0.00 0.00 86 1013.7
20260510082726 20 338 4.8 6.4 0.00 0.00 0.00 86 1013.7
20260510081216 20 23 3.2 4.8 0.00 0.00 0.00 86 1013.4
20260510080117 20 338 3.2 6.4 0.00 0.00 0.00 86 1013.3
20260510075027 20 0 3.2 8.0 0.00 0.00 0.00 86 1013.3
20260510073938 20 158 3.2 8.0 0.00 0.00 0.00 86 1013.6
20260510072853 20 338 3.2 6.4 0.00 0.00 0.00 86 1013.6
20260510071805 20 45 6.4 11.3 0.00 0.00 0.00 86 1013.4
20260510070725 20 315 1.6 9.7 0.00 0.00 0.00 86 1013.4
20260510065632 20 315 0.0 0.0 0.00 0.00 0.00 86 1012.6
20260510065021 21 135 0.0 0.0 0.00 0.00 0.00 86 1012.6
20260510063502 21 180 0.0 0.0 0.00 0.00 0.00 86 1013.0
20260510062417 21 248 0.0 0.0 0.00 0.00 0.00 85 1013.0
20260510061326 21 158 3.2 6.4 0.00 0.00 0.00 85 1013.1
20260510060246 21 113 3.2 6.4 0.00 0.00 0.00 86 1013.1
20260510055155 21 158 6.4 12.9 0.00 0.00 0.00 86 1012.7
20260510055025 21 158 4.8 9.7 0.00 0.00 0.00 86 1012.9
20260510053032 21 135 4.8 6.4 0.00 0.00 0.00 86 1012.9
20260510051937 21 158 6.4 4.8 0.00 0.00 0.00 87 1013.4
20260510050850 21 158 6.4 11.3 0.00 0.00 0.00 87 1013.4
20260510045810 21 113 6.4 11.3 0.00 0.00 0.00 87 1013.6
20260510044720 21 113 6.4 11.3 0.00 0.00 0.00 87 1013.6
20260510043634 21 135 4.8 9.7 0.00 0.00 0.00 87 1014.4
20260510043031 21 90 6.4 9.7 0.00 0.00 0.00 87 1014.4
20260510041507 21 113 4.8 6.4 0.00 0.00 0.00 87 1014.6
20260510040857 21 180 0.0 3.2 0.00 0.00 0.00 87 1014.6
20260510035336 21 68 1.6 3.2 0.00 0.00 0.00 87 1014.7
20260510034245 21 45 0.0 3.2 0.00 0.00 0.00 87 1014.7
20260510033159 21 68 3.2 4.8 0.00 0.00 0.00 87 1015.1
20260510032111 21 113 3.2 6.4 0.00 0.00 0.00 87 1015.0
20260510031033 21 135 3.2 6.4 0.00 0.00 0.00 87 1015.0
20260510030413 21 135 3.2 8.0 0.00 0.00 0.00 87 1014.4
20260510024859 21 135 6.4 8.0 0.00 0.00 0.00 87 1014.4
20260510023809 21 135 4.8 6.4 0.00 0.00 0.00 88 1014.3
20260510022724 21 68 3.2 6.4 0.00 0.00 0.00 88 1014.3
20260510021635 21 113 3.2 6.4 0.00 0.00 0.00 88 1014.0
20260510021042 21 113 4.8 6.4 0.00 0.00 0.00 88 1014.0
20260510015945 21 113 6.4 12.9 0.00 0.00 0.00 88 1013.6
20260510014427 21 135 6.4 6.4 0.00 0.00 0.00 88 1013.6
20260510013333 21 113 8.0 12.9 0.00 0.00 0.00 88 1013.2
20260510012250 21 113 9.7 14.5 0.00 0.00 0.00 87 1013.2
20260510011638 21 135 8.0 12.9 0.00 0.00 0.00 87 1013.3
20260510010121 21 113 6.4 9.7 0.00 0.00 0.00 87 1013.3
20260510005032 21 113 4.8 8.0 0.00 0.00 0.00 87 1013.3
20260510003950 21 135 4.8 6.4 0.00 0.00 0.00 87 1013.2
20260510003821 21 68 4.8 6.4 0.00 0.00 0.00 87 1013.2
20260510001818 21 68 3.2 6.4 0.00 0.00 0.00 87 1013.7
20260510001209 21 68 1.6 4.8 0.00 0.00 0.00 87 1013.7
20260509235640 21 68 3.2 4.8 0.00 0.00 0.00 87 1013.4
20260509234556 21 113 4.8 6.4 0.00 0.00 0.00 87 1013.4
20260509233516 21 68 3.2 6.4 0.00 0.00 0.00 87 1013.5
20260509232427 21 68 3.2 6.4 0.00 0.00 0.00 87 1013.5
20260509231341 21 45 4.8 4.8 0.00 0.00 0.00 87 1013.2
20260509230253 21 45 4.8 8.0 0.00 0.00 0.00 87 1013.2
20260509225208 21 68 6.4 9.7 0.00 0.00 0.00 87 1012.9
20260509224123 21 135 6.4 8.0 0.00 0.00 0.00 87 1012.4
20260509223041 21 113 6.4 11.3 0.00 0.00 0.00 87 1012.4
20260509221950 21 68 4.8 11.3 0.00 0.00 0.00 87 1012.9
20260509220902 21 135 4.8 9.7 0.00 0.00 0.00 87 1012.9
20260509215820 21 113 1.6 6.4 0.00 0.00 0.00 87 1012.2
20260509214731 21 45 3.2 6.4 0.00 0.00 0.00 87 1012.2
20260509214123 21 113 3.2 6.4 0.00 0.00 0.00 87 1011.5
20260509212602 21 90 4.8 8.0 0.00 0.00 0.00 87 1011.5
20260509211514 21 68 6.4 8.0 0.00 0.00 0.00 87 1012.7
20260509210428 21 90 6.4 9.7 0.00 0.00 0.00 87 1012.7
20260509205342 20 68 4.8 9.7 0.00 0.00 0.00 87 1012.5
20260509204256 20 68 4.8 6.4 0.00 0.00 0.00 87 1012.5
20260509203211 20 113 6.4 14.5 0.00 0.00 0.00 87 1012.4
20260509202131 20 45 8.0 14.5 0.00 0.00 0.00 87 1012.4
20260509201514 20 68 8.0 11.3 0.00 0.00 0.00 87 1012.4
20260509195953 20 68 8.0 14.5 0.00 0.00 0.00 87 1013.3
20260509195354 20 68 9.7 17.7 0.00 0.00 0.00 87 1013.3
20260509193823 20 68 9.7 17.7 0.00 0.00 0.00 87 1013.6
20260509192737 20 68 6.4 11.3 0.00 0.00 0.00 87 1013.6
20260509191657 20 248 3.2 8.0 0.00 0.00 0.00 87 1013.2
20260509190606 20 45 6.4 9.7 0.00 0.00 0.00 87 1013.2
20260509185520 20 113 4.8 11.3 0.00 0.00 0.00 87 1014.2
20260509184919 20 68 6.4 8.0 0.00 0.00 0.00 87 1014.2
20260509183351 20 90 6.4 12.9 0.00 0.00 0.00 87 1015.1
20260509182306 20 293 3.2 11.3 0.00 0.00 0.00 87 1015.1
20260509181224 20 68 9.7 12.9 0.00 0.00 0.00 87 1013.8